Location: Newark
(26.8167°N, 79.5167°E)
Time: 09:15:17
(UTC+00:00)

N. Korean satellite - Visible Passes

Search period start: 25 September 2020 00:00
Search period end: 05 October 2020 00:00
Orbit: 455 x 503 km, 97.2° (Epoch: 24 September)

Date Brightness Start Highest point End Pass type
(mag) Time Alt. Az. Time Alt. Az. Time Alt. Az.
26 Sep 7.8 23:50:30 10° NNE 23:53:58 46° E 23:57:20 10° S visible
27 Sep 9.6 23:25:17 10° NE 23:27:52 19° E 23:30:24 10° SE visible
30 Sep 6.6 00:05:37 10° NNE 00:09:11 85° ESE 00:12:40 10° S visible
30 Sep 8.6 23:39:57 10° NE 23:43:09 31° E 23:46:16 10° SSE visible
01 Oct 9.9 23:15:20 10° ENE 23:17:01 13° E 23:18:42 10° SE visible
03 Oct 7.3 23:54:54 10° NNE 23:58:21 55° E 00:01:45 10° S visible
04 Oct 9.3 23:29:31 10° NE 23:32:16 21° E 23:34:59 10° SSE visible
